When you browse on this site, cookies collect data to enhance your experience and personalize the content and advertising you see.
Visit our Privacy Policy to learn more. By continuing to use the site, you agree to this use of cookies and data.
  • în România
  • Lista ţărilor
  • Pe 7 zile
  • Temperatura apei
  • Hartă satelitară
  • Meteo pe hartă
  • Widget-uri
  • user-avatar
    Intrare

    Meteo pe oră la Brooklyn Center

    Astăzi, 26 Iunie, Miercuri

    Timp Temperatura Precipitaţii Vânt Presiune Umiditate
    00:00 +18°C° 0 mm 2 m/s 736 mmHg 83%
    01:00 +18°C° 0 mm 2 m/s 736 mmHg 82%
    02:00 +18°C° 0 mm 2 m/s 737 mmHg 82%
    03:00 +17°C° 0 mm 2 m/s 737 mmHg 81%
    04:00 +17°C° 0 mm 2 m/s 737 mmHg 79%
    05:00 +18°C° 0 mm 2 m/s 737 mmHg 77%
    06:00 +19°C° 0 mm 1 m/s 738 mmHg 74%
    07:00 +20°C° 0 mm 2 m/s 738 mmHg 71%
    08:00 +23°C° 0 mm 2 m/s 738 mmHg 68%
    09:00 +24°C° 0 mm 3 m/s 738 mmHg 66%
    10:00 +26°C° 0 mm 2 m/s 738 mmHg 61%
    11:00 +27°C° 0 mm 2 m/s 738 mmHg 56%
    12:00 +28°C° 0 mm 2 m/s 739 mmHg 51%
    13:00 +29°C° 0 mm 2 m/s 738 mmHg 50%
    14:00 +29°C° 0 mm 2 m/s 738 mmHg 50%
    15:00 +29°C° 0 mm 1 m/s 738 mmHg 49%
    16:00 +29°C° 0 mm 1 m/s 738 mmHg 52%
    17:00 +29°C° 0 mm 2 m/s 738 mmHg 55%
    18:00 +29°C° 0 mm 2 m/s 738 mmHg 58%
    19:00 +27°C° 0 mm 2 m/s 738 mmHg 64%
    20:00 +26°C° 0 mm 2 m/s 738 mmHg 69%
    21:00 +24°C° 0 mm 2 m/s 738 mmHg 74%
    22:00 +24°C° 0 mm 2 m/s 738 mmHg 76%
    23:00 +24°C° 0 mm 2 m/s 738 mmHg 78%

    Mâine, 27 Iunie, Joi

    Timp Temperatura Precipitaţii Vânt Presiune Umiditate
    00:00 +23°C° 0 mm 2 m/s 738 mmHg 80%
    01:00 +23°C° 0 mm 2 m/s 738 mmHg 83%
    02:00 +21°C° 0 mm 2 m/s 738 mmHg 86%
    03:00 +21°C° 0 mm 2 m/s 738 mmHg 89%
    04:00 +21°C° 0 mm 2 m/s 738 mmHg 90%
    05:00 +21°C° 0 mm 2 m/s 738 mmHg 90%
    06:00 +23°C° 0 mm 2 m/s 738 mmHg 91%
    07:00 +24°C° 1.3 mm 3 m/s 737 mmHg 90%
    08:00 +25°C° 1.3 mm 4 m/s 737 mmHg 90%
    09:00 +26°C° 1.3 mm 4 m/s 737 mmHg 90%
    10:00 +25°C° 8.3 mm 4 m/s 737 mmHg 88%
    11:00 +24°C° 8.3 mm 3 m/s 737 mmHg 86%
    12:00 +22°C° 8.3 mm 3 m/s 737 mmHg 84%
    13:00 +25°C° 0.3 mm 3 m/s 737 mmHg 79%
    14:00 +26°C° 0.3 mm 2 m/s 737 mmHg 74%
    15:00 +27°C° 0.3 mm 2 m/s 737 mmHg 69%
    16:00 +27°C° 0 mm 2 m/s 737 mmHg 70%
    17:00 +27°C° 0 mm 2 m/s 737 mmHg 71%
    18:00 +27°C° 0 mm 2 m/s 737 mmHg 73%
    19:00 +26°C° 0 mm 2 m/s 737 mmHg 78%
    20:00 +25°C° 0 mm 2 m/s 738 mmHg 84%
    21:00 +23°C° 0 mm 2 m/s 738 mmHg 89%
    22:00 +23°C° 0 mm 2 m/s 738 mmHg 90%
    23:00 +22°C° 0 mm 1 m/s 738 mmHg 91%

    Poimâine, 28 Iunie, Vineri

    Timp Temperatura Precipitaţii Vânt Presiune Umiditate
    00:00 +22°C° 0 mm 1 m/s 738 mmHg 91%
    01:00 +21°C° 0 mm 1 m/s 738 mmHg 91%
    02:00 +21°C° 0 mm 1 m/s 738 mmHg 91%
    03:00 +19°C° 0 mm 2 m/s 738 mmHg 91%
    04:00 +19°C° 0 mm 2 m/s 739 mmHg 90%
    05:00 +20°C° 0 mm 2 m/s 739 mmHg 89%
    06:00 +20°C° 0 mm 2 m/s 739 mmHg 88%
    07:00 +21°C° 0 mm 2 m/s 739 mmHg 81%
    08:00 +24°C° 0 mm 2 m/s 739 mmHg 75%
    09:00 +26°C° 0 mm 2 m/s 739 mmHg 68%
    10:00 +27°C° 0 mm 2 m/s 739 mmHg 65%
    11:00 +29°C° 0 mm 2 m/s 739 mmHg 61%
    12:00 +30°C° 0 mm 2 m/s 740 mmHg 58%
    13:00 +31°C° 0 mm 3 m/s 739 mmHg 59%
    14:00 +31°C° 0 mm 3 m/s 739 mmHg 60%
    15:00 +31°C° 0 mm 3 m/s 739 mmHg 60%
    16:00 +31°C° 0 mm 3 m/s 739 mmHg 65%
    17:00 +30°C° 0 mm 3 m/s 739 mmHg 69%
    18:00 +30°C° 0 mm 3 m/s 739 mmHg 73%
    19:00 +29°C° 0 mm 2 m/s 739 mmHg 78%
    20:00 +28°C° 0 mm 2 m/s 739 mmHg 83%
    21:00 +26°C° 0 mm 2 m/s 739 mmHg 87%
    22:00 +26°C° 0 mm 2 m/s 739 mmHg 89%
    23:00 +26°C° 0 mm 2 m/s 739 mmHg 91%

    29 Iunie, Sâmbătă

    Timp Temperatura Precipitaţii Vânt Presiune Umiditate
    00:00 +25°C° 0 mm 2 m/s 739 mmHg 92%
    01:00 +25°C° 0 mm 2 m/s 739 mmHg 93%
    02:00 +25°C° 0 mm 2 m/s 738 mmHg 94%
    03:00 +24°C° 0 mm 2 m/s 738 mmHg 95%
    04:00 +25°C° 0 mm 2 m/s 738 mmHg 95%
    05:00 +25°C° 0 mm 2 m/s 738 mmHg 95%
    06:00 +25°C° 0 mm 2 m/s 739 mmHg 95%
    07:00 +27°C° 0 mm 2 m/s 739 mmHg 89%
    08:00 +29°C° 0 mm 2 m/s 739 mmHg 83%
    09:00 +31°C° 0 mm 2 m/s 739 mmHg 77%
    10:00 +32°C° 0 mm 2 m/s 738 mmHg 72%
    11:00 +35°C° 0 mm 2 m/s 738 mmHg 67%
    12:00 +36°C° 0 mm 3 m/s 738 mmHg 62%
    13:00 +36°C° 0.2 mm 3 m/s 738 mmHg 61%
    14:00 +37°C° 0.2 mm 3 m/s 737 mmHg 60%
    15:00 +38°C° 0.2 mm 3 m/s 737 mmHg 60%
    16:00 +37°C° 0.4 mm 3 m/s 737 mmHg 63%
    17:00 +36°C° 0.4 mm 3 m/s 737 mmHg 67%
    18:00 +35°C° 0.4 mm 3 m/s 737 mmHg 70%
    19:00 +34°C° 0.2 mm 3 m/s 737 mmHg 74%
    20:00 +33°C° 0.2 mm 3 m/s 737 mmHg 78%
    21:00 +31°C° 0.2 mm 3 m/s 737 mmHg 81%
    22:00 +30°C° 0 mm 3 m/s 737 mmHg 82%
    23:00 +30°C° 0 mm 3 m/s 737 mmHg 82%

    30 Iunie, Duminică

    Timp Temperatura Precipitaţii Vânt Presiune Umiditate
    00:00 +29°C° 0 mm 4 m/s 737 mmHg 82%
    01:00 +28°C° 0 mm 4 m/s 737 mmHg 84%
    02:00 +28°C° 0 mm 3 m/s 736 mmHg 86%
    03:00 +27°C° 0 mm 3 m/s 736 mmHg 87%
    04:00 +27°C° 0 mm 3 m/s 736 mmHg 86%
    05:00 +27°C° 0 mm 3 m/s 736 mmHg 86%
    06:00 +27°C° 0 mm 3 m/s 736 mmHg 85%
    07:00 +29°C° 0 mm 4 m/s 736 mmHg 80%
    08:00 +30°C° 0 mm 4 m/s 737 mmHg 76%
    09:00 +32°C° 0 mm 4 m/s 737 mmHg 71%
    10:00 +33°C° 0 mm 4 m/s 737 mmHg 68%
    11:00 +34°C° 0 mm 3 m/s 736 mmHg 66%
    12:00 +35°C° 0 mm 3 m/s 736 mmHg 63%
    13:00 +35°C° 0 mm 3 m/s 736 mmHg 62%
    14:00 +36°C° 0 mm 3 m/s 736 mmHg 61%
    15:00 +36°C° 0 mm 4 m/s 736 mmHg 59%
    16:00 +35°C° 0.3 mm 4 m/s 735 mmHg 63%
    17:00 +35°C° 0.3 mm 3 m/s 735 mmHg 67%
    18:00 +34°C° 0.3 mm 3 m/s 735 mmHg 71%
    19:00 +33°C° 1 mm 3 m/s 736 mmHg 74%
    20:00 +30°C° 1 mm 2 m/s 736 mmHg 76%
    21:00 +29°C° 1 mm 2 m/s 736 mmHg 79%
    22:00 +28°C° 0.5 mm 2 m/s 736 mmHg 81%
    23:00 +27°C° 0.5 mm 2 m/s 737 mmHg 84%

    1 Iulie, Luni

    Timp Temperatura Precipitaţii Vânt Presiune Umiditate
    00:00 +27°C° 0.5 mm 2 m/s 737 mmHg 86%
    01:00 +26°C° 2.3 mm 2 m/s 737 mmHg 87%
    02:00 +26°C° 2.3 mm 2 m/s 737 mmHg 87%
    03:00 +25°C° 2.3 mm 2 m/s 737 mmHg 88%
    04:00 +24°C° 0.1 mm 3 m/s 737 mmHg 87%
    05:00 +22°C° 0.1 mm 3 m/s 737 mmHg 86%
    06:00 +21°C° 0.1 mm 4 m/s 737 mmHg 86%
    07:00 +22°C° 0 mm 3 m/s 738 mmHg 81%
    08:00 +24°C° 0 mm 2 m/s 738 mmHg 76%
    09:00 +25°C° 0 mm 1 m/s 738 mmHg 71%
    10:00 +26°C° 0 mm 1 m/s 738 mmHg 68%
    11:00 +27°C° 0 mm 2 m/s 738 mmHg 64%
    12:00 +28°C° 0 mm 3 m/s 738 mmHg 61%
    13:00 +27°C° 0 mm 3 m/s 737 mmHg 63%
    14:00 +27°C° 0 mm 3 m/s 737 mmHg 64%
    15:00 +26°C° 0 mm 3 m/s 737 mmHg 66%
    16:00 +26°C° 0.6 mm 2 m/s 737 mmHg 68%
    17:00 +26°C° 0.6 mm 2 m/s 737 mmHg 69%
    18:00 +26°C° 0.6 mm 2 m/s 737 mmHg 71%
    19:00 +25°C° 0.4 mm 1 m/s 737 mmHg 72%
    20:00 +25°C° 0.4 mm 1 m/s 737 mmHg 73%
    21:00 +22°C° 0.4 mm 0 m/s 737 mmHg 74%
    22:00 +22°C° 0.1 mm 0 m/s 736 mmHg 74%
    23:00 +21°C° 0.1 mm 0 m/s 736 mmHg 74%
    Arată mai mult